This is the latest recevied weather packets stored in our database for station/object N4DWK. If no packets are shown the sender has not sent any weather packets the latest 10 day(s).
| Time | Temp. | Humidity | Pressure | Rain* | Wind** | Luminosity | Snow |
|---|---|---|---|---|---|---|---|
| 1777645806 | 15° C | 50% | 1016.4 hPa | 0 mm | - | 318 W/m² | - |
| 1777645505 | 15° C | 51% | 1016.2 hPa | 0 mm | - | 81 W/m² | - |
| 1777645205 | 15° C | 48% | 1016.3 hPa | 0 mm | - | 91 W/m² | - |
| 1777644906 | 15° C | 49% | 1016.3 hPa | 0 mm | - | 188 W/m² | - |
| 1777644605 | 15° C | 50% | 1016.3 hPa | 0 mm | - | 330 W/m² | - |
| 1777644305 | 15.56° C | 52% | 1016.3 hPa | 0 mm | - | 392 W/m² | - |
| 1777644006 | 15° C | 51% | 1016.4 hPa | 0 mm | - | 178 W/m² | - |
| 1777643705 | 15° C | 51% | 1016.3 hPa | 0 mm | - | 185 W/m² | - |
| 1777643406 | 14.44° C | 53% | 1016.4 hPa | 0 mm | - | 418 W/m² | - |
| 1777643105 | 14.44° C | 55% | 1016.4 hPa | 0 mm | - | 151 W/m² | - |
| 1777642805 | 14.44° C | 54% | 1016.4 hPa | 0 mm | - | 381 W/m² | - |
| 1777642504 | 14.44° C | 54% | 1016.5 hPa | 0 mm | - | 192 W/m² | - |
| 1777642205 | 14.44° C | 56% | 1016.5 hPa | 0 mm | - | 125 W/m² | - |
| 1777641905 | 13.89° C | 57% | 1016.4 hPa | 0 mm | - | 113 W/m² | - |
| 1777641605 | 13.89° C | 58% | 1016.4 hPa | 0 mm | - | 100 W/m² | - |
| 1777641305 | 13.33° C | 60% | 1016.3 hPa | 0 mm | - | 309 W/m² | - |
| 1777641005 | 13.33° C | 62% | 1016.3 hPa | 0 mm | - | 297 W/m² | - |
| 1777640705 | 12.78° C | 64% | 1016.2 hPa | 0 mm | - | 74 W/m² | - |
| 1777640405 | 12.22° C | 67% | 1016.3 hPa | 0 mm | - | 88 W/m² | - |
| 1777640106 | 11.67° C | 69% | 1016.3 hPa | 0 mm | - | 95 W/m² | - |
| 1777639805 | 11.11° C | 70% | 1016.3 hPa | 0 mm | - | 62 W/m² | - |
| 1777639505 | 10.56° C | 75% | 1016.2 hPa | 0 mm | - | 155 W/m² | - |
| 1777639205 | 10.56° C | 77% | 1016.3 hPa | 0 mm | - | 163 W/m² | - |
| 1777638905 | 10° C | 79% | 1016.4 hPa | 0 mm | - | 46 W/m² | - |
| 1777638605 | 9.44° C | 80% | 1016.5 hPa | 0 mm | - | 46 W/m² | - |
* Rain latest hour (hover to see other rain measurements)
** Current wind speed in m/s (hover to see current wind gust speed)